Content
SEND FEEDBACK

Daily
Averages
Monthly
Summary
United States of America

PLAINFIELD, MASSACHUSETTS


Home > North America > United States > Massachusetts
Elevation: 494 meters     Latitude: 42 31N     Longitude: 072 55W

WEATHER
 
SELECT A DAY
Number of Records: 196,869;   Date Range: 10/28/95 - 7/29/14
 
SHARE

PRINT THIS DATA

[ ← Previous Day ]
WEATHER ALMANAC - 31 JANUARY, 2013
[ Next Day → ]
[ °F ]   °C
Weather ElementAverageHighLow
Temperature1.9 °C16.1 °C (3:52 am)-4.4 °C (10:52 pm)
Dewpoint-3.1 °C12 °C (4:33 am)-10.6 °C (8:52 pm)
Humidity70.5 %89 % (12:52 am)41 % (12:52 pm)
Barometer994.9 hPa1003 hPa (11:52 pm)979.7 hPa (6:52 am)
Wind Speed19 km/h48.1 km/h (12:52 pm)
Wind Gust66.6 km/h (12:52 pm)
Weather ElementAverage
Visibility7.7 km
Wind DirectionWSW (234.4 °)

Weather ElementTotal
Precipitation27.69 mm
Heating Degree Days12.5 (Base 18.3)
Averaged from 55 records on 31 January, 2013
WEATHER CONDITIONS BREAKOUT
WIND DIRECTION BREAKOUT
WEATHER BY HOUR - 31 JANUARY, 2013
[ °F ]   °C
Local TimeTemperatureDewpointHumidityBarometerVisibilityWind DirectionWind SpeedGust SpeedPrecipitationEventsConditions
12:27 AM11 °C9 °C88 %992.2 hPa2.4 kmENE (60°)7.4 km/h0.76 mmRainLight Rain
12:45 AM11 °C9 °C88 %991.5 hPa4.8 kmCalm1.02 mmRainLight Rain
12:52 AM10.6 °C8.9 °C89 %991.5 hPa14.5 kmCalm1.02 mmRainLight Rain
1:31 AM11 °C9 °C88 %989.5 hPa8 kmEast (90°)13 km/h0.25 mmRainLight Rain
1:52 AM11.1 °C9.4 °C89 %987.8 hPa11.3 kmENE (70°)13 km/h27.8 km/h0.51 mmRainLight Rain
2:52 AM13.9 °C11.1 °C83 %985.4 hPa9.7 kmVariable11.1 km/h0.51 mmRainLight Rain
3:52 AM16.1 °C11.1 °C72 %982.1 hPa4.8 kmSSW (210°)24.1 km/h38.9 km/h1.27 mmRainLight Rain
4:33 AM14 °C12 °C88 %982.4 hPa3.2 kmWest (260°)20.4 km/h31.5 km/h2.79 mmRainRain
4:43 AM14 °C12 °C88 %982.1 hPa2.4 kmVariable7.4 km/h4.32 mmRainHeavy Rain
4:52 AM13.9 °C11.1 °C83 %982.7 hPa4 kmWest (280°)13 km/h5.08 mmRainRain
5:01 AM13 °C11 °C88 %981.4 hPa4.8 kmNNW (330°)11.1 km/h0.51 mmRainRain
5:52 AM13.9 °C10 °C77 %980.7 hPa6.4 kmVariable5.6 km/h37 km/h3.81 mmRainLight Rain
6:52 AM13.9 °C8.3 °C69 %979.7 hPa16.1 kmSSW (200°)16.7 km/h33.3 km/h0.25 mmScattered Clouds
7:06 AM7 °C3 °C76 %983.4 hPa3.2 kmWest (280°)25.9 km/h57.5 km/h1.02 mmRainHeavy Rain
7:20 AM6 °C2 °C76 %984.4 hPa8 kmVariable11.1 km/h50.1 km/h1.52 mmRainLight Rain
7:52 AM3.9 °C0.6 °C79 %985.4 hPa11.3 kmWest (280°)14.8 km/h31.5 km/h2.03 mmRainLight Rain
8:52 AM3.3 °C-0.6 °C76 %987.5 hPa14.5 kmWest (280°)16.7 km/h27.8 km/h0.51 mmRainLight Rain
9:52 AM3.3 °C-2.8 °C65 %988.5 hPa16.1 kmWest (280°)16.7 km/h50.1 km/h0 mmOvercast
10:52 AM2.8 °C-5 °C57 %990.2 hPa16.1 kmWest (280°)24.1 km/h38.9 km/hOvercast
11:52 AM3.3 °C-7.8 °C45 %990.9 hPa16.1 kmWest (270°)38.9 km/h62.9 km/h0.25 mmOvercast
12:52 PM2.2 °C-10 °C41 %991.9 hPa16.1 kmWest (270°)48.1 km/h66.6 km/hOvercast
1:52 PM1.7 °C-8.9 °C46 %992.6 hPa16.1 kmWNW (290°)22.2 km/h57.5 km/hOvercast
2:52 PM1.7 °C-8.9 °C46 %993.6 hPa16.1 kmWNW (290°)25.9 km/h48.1 km/hMostly Cloudy
3:52 PM0.6 °C-7.8 °C54 %995.3 hPa16.1 kmWest (270°)18.5 km/h37 km/hOvercast
4:52 PM-0.6 °C-8.3 °C57 %997 hPa6.4 kmWest (270°)20.4 km/h33.3 km/h0 mmSnowLight Snow
5:52 PM-1.1 °C-8.3 °C59 %998.6 hPa4 kmWest (280°)24.1 km/h55.5 km/h0 mmSnowLight Snow
5:55 PM-2 °C-8 °C64 %998.3 hPa2.4 kmWest (270°)24.1 km/h55.5 km/h0 mmSnowLight Snow
6:00 PM-2 °C-7 °C69 %998.3 hPa1.3 kmWest (280°)18.5 km/h35.2 km/h0 mmSnowLight Snow
6:09 PM-2 °C-6 °C74 %998.6 hPa1.6 kmWest (280°)20.4 km/h27.8 km/h0 mmSnowLight Snow
6:13 PM-2 °C-7 °C69 %998.6 hPa4 kmWest (270°)20.4 km/h33.3 km/h0 mmSnowLight Snow
6:16 PM-2 °C-7 °C69 %998.6 hPa9.7 kmWest (260°)16.7 km/h33.3 km/h0 mmSnowLight Snow
6:23 PM-2 °C-7 °C69 %998.6 hPa16.1 kmWest (270°)20.4 km/h0 mmOvercast
6:52 PM-1.7 °C-7.8 °C64 %999.7 hPa16.1 kmWNW (290°)14.8 km/h29.6 km/h0 mmOvercast
7:44 PM-3 °C-8 °C69 %1000.3 hPa3.2 kmWest (280°)24.1 km/h50.1 km/h0 mmSnowLight Snow
7:48 PM-3 °C-8 °C69 %1000.7 hPa1.6 kmWest (280°)25.9 km/h50.1 km/h0 mmSnowLight Snow
7:52 PM-3.9 °C-7.2 °C78 %1001.4 hPa0.8 kmWest (280°)24.1 km/h42.6 km/h0 mmSnowSnow
8:04 PM-3 °C-8 °C69 %1000.7 hPa1.9 kmWest (270°)25.9 km/h42.6 km/h0 mmSnowLight Snow
8:11 PM-3 °C-8 °C69 %1000.7 hPa2.9 kmWest (270°)22.2 km/h38.9 km/h0 mmSnowLight Snow
8:16 PM-3 °C-9 °C64 %1000.7 hPa4.8 kmWest (270°)24.1 km/h40.7 km/h0 mmSnowLight Snow
8:26 PM-3 °C-10 °C59 %1000.7 hPa11.3 kmWest (280°)18.5 km/h50.1 km/h0 mmOvercast
8:52 PM-2.8 °C-10.6 °C56 %1001.7 hPa16.1 kmWest (260°)25.9 km/h42.6 km/h0 mmOvercast
9:39 PM-3 °C-9 °C64 %1001.7 hPa2.4 kmWest (270°)22.2 km/h44.4 km/h0 mmSnowLight Snow
9:41 PM-3 °C-8 °C69 %1001.7 hPa1.9 kmWest (270°)22.2 km/h44.4 km/h0 mmSnowLight Snow
9:52 PM-3.9 °C-8.3 °C72 %1002.4 hPa2.4 kmWest (280°)24.1 km/h42.6 km/h0 mmSnowLight Snow
10:08 PM-4 °C-8 °C74 %1001.7 hPa3.2 kmWest (280°)25.9 km/h40.7 km/h0 mmSnowLight Snow
10:19 PM-4 °C-9 °C69 %1001.7 hPa6.4 kmWest (280°)20.4 km/h33.3 km/h0 mmSnowLight Snow
10:38 PM-4 °C-9 °C69 %1001.7 hPa4.8 kmWNW (290°)13 km/h27.8 km/h0 mmSnowLight Snow
10:42 PM-4 °C-8 °C74 %1001.7 hPa2.4 kmWNW (290°)13 km/h27.8 km/h0 mmSnowLight Snow
10:44 PM-4 °C-8 °C74 %1002 hPa1.3 kmWNW (290°)14.8 km/h27.8 km/h0 mmSnowLight Snow
10:52 PM-4.4 °C-7.2 °C81 %1002.7 hPa0.3 kmWest (280°)16.7 km/h33.3 km/h0.25 mmSnowHeavy Snow
10:58 PM-4 °C-8 °C74 %1002 hPa1.6 kmWest (280°)18.5 km/h0 mmSnowLight Snow
11:00 PM-4 °C-8 °C74 %1002 hPa4 kmWest (280°)13 km/h27.8 km/h0 mmSnowLight Snow
11:07 PM-4 °C-9 °C69 %1002 hPa14.5 kmWest (280°)29.6 km/h37 km/h0 mmOvercast
11:21 PM-4 °C-9 °C69 %1002 hPa16.1 kmWNW (290°)14.8 km/h33.3 km/h0 mmOvercast
11:52 PM-4.4 °C-9.4 °C69 %1003 hPa14.5 kmWest (280°)14.8 km/h29.6 km/h0 mmOvercast
Hourly data recorded from KAQW, located 0 kilometers away from Plainfield, Massachusetts







STORIES FROM OUR PARTNERS